[ ตารางข้อมูล ] [ Min-Max ] [ วันนี้2 ] [ วันนี้4 ] [ เทียบ-A 3วัน ] [ เทียบ-B 4วัน ]   

วันนี้2   [ ◀ ช่วงเก่ากว่า ] [ ช่วงที่ 56 ] [ ช่วงใหม่กว่า ▶ ] [ ล่าสุด ]    [ 3 ชั่วโมง ] [ 6 ชั่วโมง ] [ 12 ชั่วโมง ] [ 24 ชั่วโมง ]   วันนี้2

อุณภูมิในตู้ Knockdown4529  ราย 6 ชั่วโมง  ที่วัดได้ ในช่วงวันเวลา 19/08/2026 (12:35) ถึง 19/08/2026 (18:35) 
ความชื้นในตู้ Knockdown4529  ราย 6 ชั่วโมง  ที่วัดได้ ในช่วงวันเวลา 19/08/2026 (12:35) ถึง 19/08/2026 (18:35) 
การใช้ไฟฟ้าในตู้ Knockdown4529  ราย 6 ชั่วโมง  ที่วัดได้ ในช่วงวันเวลา 19/08/2026 (12:35) ถึง 19/08/2026 (18:35) 

  DS18B20SHTC3PZEM-004TWiFi 
IDDate d/m/Y & Timedata1
สูง
data2
ต่ำ
data3
นอก
temp
pcb
hum
pcb
VoltAmpWattrssiTime
 14120  19/08/2026 18:33:52  33.3  33.2  31.4  34.3  66.4  235.3  0.04  4.6  -76  18:33 
 14119  19/08/2026 18:29:08  33.4  33.2  31.4  34.3  66.2  234.9  0.04  4.6  -78  18:29 
 14118  19/08/2026 18:24:24  33.4  33.2  31.5  34.3  66.2  235.1  0.04  4.6  -78  18:24 
 14117  19/08/2026 18:19:41  33.5  33.2  31.8  34.6  66.1  235.6  0.04  4.6  -78  18:19 
 14116  19/08/2026 18:14:57  33.6  33.3  31.9  34.3  66.1  235.4  0.04  4.6  -78  18:14 
 14115  19/08/2026 18:10:14  33.6  33.3  31.9  34.6  66.0  234.3  0.04  4.6  -75  18:10 
 14114  19/08/2026 18:05:30  33.6  33.3  32.1  34.7  66.0  234.3  0.04  4.6  -78  18:05 
 14113  19/08/2026 18:00:47  33.6  33.4  32.2  34.6  65.9  234.3  0.04  4.6  -76  18:00 
 14112  19/08/2026 17:56:03  33.7  33.4  32.3  34.6  65.7  234.6  0.04  4.6  -79  17:56 
 14111  19/08/2026 17:51:20  33.7  33.4  32.2  34.7  65.7  234.4  0.04  4.6  -78  17:51 
 14110  19/08/2026 17:46:37  33.8  33.4  32.4  34.6  65.7  234.4  0.04  4.6  -78  17:46 
 14109  19/08/2026 17:41:52  33.8  33.4  32.4  34.7  65.7  234.0  0.04  4.6  -78  17:41 
 14108  19/08/2026 17:37:08  33.8  33.4  32.7  34.6  65.6  234.0  0.04  4.6  -77  17:37 
 14107  19/08/2026 17:32:25  33.8  33.4  32.8  34.8  65.7  234.6  0.04  4.6  -77  17:32 
 14106  19/08/2026 17:27:41  33.8  33.4  33.0  34.8  65.7  234.9  0.04  4.4  -78  17:27 
 14105  19/08/2026 17:22:58  33.9  33.4  33.1  34.8  65.7  235.0  0.04  4.6  -76  17:22 
 14104  19/08/2026 17:18:15  33.9  33.4  33.3  34.7  65.8  234.7  0.04  4.5  -79  17:18 
 14103  19/08/2026 17:13:32  33.9  33.4  33.2  34.8  65.7  235.0  0.04  4.4  -79  17:13 
 14102  19/08/2026 17:08:48  33.9  33.4  33.3  34.8  65.7  235.0  0.04  4.4  -79  17:08 
 14101  19/08/2026 17:04:05  33.9  33.4  33.3  35.0  65.5  234.7  0.04  4.4  -78  17:04 
 14100  19/08/2026 16:59:22  34.0  33.4  33.6  34.8  65.5  234.1  0.04  4.4  -78  16:59 
 14099  19/08/2026 16:54:38  34.0  33.4  33.7  35.0  65.4  233.6  0.04  4.4  -78  16:54 
 14098  19/08/2026 16:49:55  34.0  33.4  33.7  34.9  65.3  233.6  0.04  4.4  -78  16:49 
 14097  19/08/2026 16:45:10  34.1  33.4  33.7  34.9  65.3  234.3  0.04  4.4  -78  16:45 

Data every 5 minute.


ใช้เวลาประมวลผล 0.03226 วินาที